Regional Weather Roundup
Issued by NWS

Home | Current Version | Previous Version | Text Only | Print | Product List | Glossary On
Versions: 1 2 3 4 5 6 7 8 9 10 11 12 13 14 15 16 17 18 19 20 21 22 23 24 25 26 27 28 29 30 31 32 33 34 35 36 37 38 39 40 41 42 43 44 45 46 47 48 49 50
976
ASUS42 KKEY 250410
RWRKEY

FLORIDA REGIONAL WEATHER ROUNDUP FOR THE FLORIDA KEYS
NATIONAL WEATHER SERVICE KEY WEST FLORIDA
1100 PM EST SAT FEB 24 2018

...SOUTH FLORIDA AND THE KEYS...

CITY           SKY/WX    TMP DP  RH WIND       PRES   REMARKS
FORT MYERS     FAIR      73  67  81 SE5       30.15S
SW REGIONAL AP FAIR      71  67  87 SE5       30.16R
NAPLES         FAIR      71  68  90 SE7       30.15S
MIAMI          MOCLDY    73  68  84 SE12G20   30.18R
WEST KENDALL   CLOUDY    72  67  84 E12       30.17R
HOMESTEAD      FAIR      74  69  82 E10       30.16S
MARATHON       FAIR      77  68  73 SE12G17   30.14S
KEY WEST INTL  FAIR      77  69  76 E18       30.14S

...INTERNATIONAL WEATHER...

CITY           SKY/WX    TMP DP  RH WIND       PRES   REMARKS
NASSAU BAHAMAS NOT AVBL
CANCUN MEXICO  PTCLDY    75  68  78 SE7       30.06S
COZUMEL MEXICO PTCLDY    72  70  94 SE5       30.04S

ADJACENT COASTAL WATERS...

STATION/POSITION TIME  SKY/WX   TEMP    WIND        PRES    WAVE
                                AIR SEA DIR/SP/G            HT/PER
                 (UTC)          (F)     (DEG/KT/KT) (MB)    (FT/S)
PULASKI SHOAL LI 0400            77     120/ 19/ 20 1020.1R
SAND KEY         0350            77                 1020.8F
LONG KEY         0300            76 77  150/  7     1020.5
MOLASSES REEF    0300            77 78  140/ 14/ 15 1021.2S
FOWEY ROCKS      0400            74 76  140/ 12/ 13 1022.2F
Buoy 42097       0330               75                N/A     2/ 5

$$




USA.gov is the U.S. government's official web portal to all federal, state and local government web resources and services.